User: anonymous   Login
Location: Unspecified
(0.0000°N, 0.0000°E)
Time: 19:02:18
(UTC+00:00)
Language:

Kosmos-1506 - Orbit

View from above orbital plane
View from above orbital plane
View from above satellite
View from above satellite

Ground track
Ground track

The orbit data is extracted from the following two-line orbital elements,

1 14450U 83108A   24151.40335619  .00000125  00000-0  11236-3 0  9992
2 14450  82.9290 107.9016 0041580 292.9726 186.2901 13.76410561854788
Epoch (UTC): 30 May 2024 09:40:49
Eccentricity: 0.0041580
inclination: 82.9290°
perigee height: 946 km
apogee height: 1007 km
right ascension of ascending node: 107.9016°
argument of perigee: 292.9726°
revolutions per day: 13.76410561
mean anomaly at epoch: 186.2901°
orbit number at epoch: 85478

The dashed part of the orbit path shows where the satellite is in the earth's shadow,  

DLR